Location: Bratislava
(0.0000°N, 17.1167°E)
Time: 03:55:05
(UTC+01:00)

Ariane H10 - Pass Details

Date: 24 January 2021
Orbit: 407 x 34714 km, 3.5° (Epoch: 06 March)

Event Time Altitude Azimuth Distance (km) Brightness Sun altitude
Rises 19:56:51 0° 271° (W) 2,925 7.1 -26.6°
Reaches altitude 10° 19:59:19 10° 269° (W) 1,581 5.5 -27.2°
Enters shadow 20:00:28 21° 266° (W) 972 4.2 -27.4°
